#timestamp,LO_Frequency,Hit,StdDev 
1580742735.7,286046994.9,P
1580742755.5,286046996.2,P
1580742775.4,286046996.1,P
1580742795.2,286046993.4,Y
1580742815.0,286046998.4,P
1580742815.9,286046998.4,N
1580742835.8,286046999.6,N
1580742855.6,286046999.6,N
1580742875.5,286046997.5,N
1580742895.3,286046996.7,N
1580742915.1,286047000.3,N
1580742935.9,286047000.5,N
1580742955.7,286046998.3,N
1580742975.5,286046998.3,N
1580742995.4,286046999.5,N
1580743015.2,286046998.0,N
1580743035.1,286046994.9,Y
1580743036.0,286046994.9,P
1580743055.8,286046997.1,N
1580743075.6,286046999.6,N
1580743095.5,286046996.9,N
1580743115.3,286046998.0,N
1580743135.2,286046995.6,Y
1580743155.9,286046998.6,P
1580743175.7,286046999.3,N
1580743195.6,286046999.5,N
1580743215.4,286046999.4,N
1580743235.3,286046999.1,N
1580743255.1,286046999.4,N
1580743256.0,286046999.4,N
1580743275.8,286046999.1,N
1580743295.7,286046998.1,Y
1580743315.5,286046999.9,P
1580743335.4,286047002.5,P
1580743355.2,286047000.4,N
1580743375.0,286047002.5,N
1580743375.9,286047002.5,N
1580743395.8,286047002.7,N
1580743415.6,286047001.1,N
1580743435.4,286047001.1,N
1580743455.3,286047001.1,N
1580743475.1,286047000.1,N
1580743525.9,286047002.2,E
1580743535.8,286047002.4,N
1580743555.7,286046999.9,P
1580743575.5,286047000.9,N
1580743595.3,286046998.4,N
1580743615.2,286046998.5,N
1580743635.0,286046999.5,N
1580743635.9,286046999.5,N
1580743655.7,286046998.8,N
1580743675.6,286046998.5,N
1580743695.4,286046998.1,N
1580743715.3,286047000.1,N
1580743735.1,286047002.8,N
1580743736.0,286047002.8,N
1580743755.8,286047001.9,N
1580743775.7,286047002.0,N
1580743795.5,286047000.2,N
1580743815.4,286046998.1,N
1580743835.2,286047001.2,N
1580743855.0,286047000.7,N
1580743855.9,286047000.7,N
1580743875.8,286047003.6,N
1580743895.6,286047005.8,Y
1580743915.5,286047005.1,P
1580743935.3,286047005.0,N
1580743955.1,286047005.8,N
1580743975.9,286047003.8,N
1580743995.7,286047004.3,N
1580744015.5,286047001.3,N
1580744035.4,286047002.6,N
1580744055.2,286047002.2,N
1580744075.1,286047000.0,N
1580744076.0,286047000.0,N
1580744095.8,286047001.1,N
1580744115.6,286046998.8,N
1580744135.5,286046996.6,N
1580744155.3,286046998.1,N
1580744175.2,286046999.0,N
1580744195.9,286046997.2,N
1580744215.7,286046997.0,N
1580744235.6,286046997.0,N
1580744255.4,286046997.2,N
1580744275.2,286046997.1,N
1580744295.1,286046997.2,N
1580744296.0,286046997.2,N
1580744315.8,286046997.3,N
1580744335.7,286046997.1,N
1580744355.5,286046997.9,N
1580744375.3,286046997.9,N
1580744395.2,286046997.4,N
1580744415.0,286046994.9,N
1580744415.9,286046994.9,N
1580744435.8,286046997.5,N
1580744455.6,286046998.0,N
1580744475.4,286046995.5,N
1580744495.3,286046995.6,N
1580744515.1,286046995.2,N
1580744535.9,286046995.2,N
1580744555.7,286046995.3,N
1580744575.5,286046995.5,N
1580744595.4,286046997.5,N
1580744615.2,286046995.5,N
1580744635.0,286046995.2,Y
1580744635.9,286046995.2,P
1580744655.8,286046998.6,N
1580744675.6,286047001.2,N
1580744695.5,286047000.5,N
1580744715.3,286047000.8,N
1580744735.1,286047001.2,N
1580744755.9,286047000.8,N
1580744775.7,286046999.9,N
1580744795.5,286047000.1,N
1580744815.4,286047002.7,N
1580744835.2,286047002.2,N
1580744855.1,286047002.2,N
1580744856.0,286047002.2,N
1580744875.8,286047002.0,N
1580744895.6,286047002.1,N
1580744915.5,286047003.9,N
1580744935.3,286047003.8,N
1580744955.1,286047005.6,N
1580744975.9,286047006.9,N
1580744995.7,286047009.2,Y
1580745015.6,286047005.0,P
1580745035.4,286047004.5,N
1580745055.2,286047007.1,P
1580745075.1,286047005.1,N
1580745076.0,286047005.1,N
1580745095.8,286047002.9,N
1580745115.7,286047006.0,Y
1580745135.5,286047000.7,P
1580745155.3,286046998.1,N
1580745175.2,286047001.2,N
1580745195.0,286047001.2,N
1580745195.9,286047001.2,N
1580745215.7,286047001.0,N
1580745235.6,286046998.1,N
1580745255.4,286046999.7,N
1580745275.3,286047002.6,N
1580745295.1,286047002.7,N
1580745296.0,286047002.7,N
1580745315.8,286047002.4,N
1580745335.7,286047002.1,N
1580745355.5,286047001.5,N
1580745375.3,286047004.4,N
1580745395.2,286047001.7,N
1580745415.0,286047004.2,N
1580745415.9,286047004.2,N
1580745435